SCP
0 0 0 0 0 0 0 0 0 0 0 0 0 0 0 0 0 0 0 0 0 0 0 0 0 0 0 0 0 0 0 0 0 0 0 0 0 0 0 0 0 0 0
0 0 0 0 0 0 0 0 0 0 0 0 0 0 0 0 0 0 0 0 0 0 0 0 0 0 0 0 0 0 0 0 0 0 0 0 0 0 0 0 0 0 0
0 0 0 0 0 0 0 0 0 0 0 0 0 0 0 0 0 0 0 0 0 0 0 0 0 0 0 0 0 0 0 0 0 0 0 0 0 0 0 0 0 0 0
0 0 0 0 0 0 0 0 0 0 0 0 0 0 0 0 0 0 0 0 0 0 0 0 0 0 0 0 0 0 0 0 0 0 0 0 0 0 0 0 0 0 0
0 0 0 0 0 0 0 0 0 0 0 0 0 0 0 0 0 0 0 0 0 0 0 0 0 0 0 0 0 0 0 0 0 0 0 0 0 0 0 0 0 0 0
0 0 0 0 0 0 0 0 0 0 0 0 0 0 0 0 0 0 0 0 0 0 0 0 0 0 0 0 0 0 0 0 0 0 0 0 0 0 0 0 -0 0 0
0 0 0 0 0 0 0 0 0 0 0 0 0 0 0 0 0 0 0 0 0 0 0 0 0 0 0 0 0 0 0 0 0 0 0 0 0 0 0 -0 -0 -0 -0
0 0 0 0 0 0 0 0 0 0 0 0 0 0 0 0 0 0 0 0 0 0 0 0 0 0 0 0 0 0 0 0 0 0 0 0 -0 -0 -0 -0 -0 -0 -0
0 0 0 0 0 0 0 0 0 0 0 0 0 0 0 0 0 0 0 0 0 0 0 0 0 0 0 0 0 0 0 0 0 0 0 0 0 -0 -0 -0 -0 -0 -0
0 0 0 0 0 0 0 0 0 0 0 0 0 0 0 0 0 0 0 0 0 0 0 0 0 0 0 0 0 0 0 0 0 0 0 0 0 0 -0 0 -0 -0 -0
0 0 0 0 0 0 0 0 0 0 0 0 0 0 0 0 0 0 0 0 0 0 0 0 0 0 0 0 0 0 0 0 0 0 0 0 0 0 0 0 0 0 0
0 0 0 0 0 0 0 0 0 0 0 0 0 0 0 0 0 0 0 0 0 0 0 0 0 0 0 0 0 0 0 0 0 0 0 0 0 0 0 0 0 0 0
0 0 0 0 0 0 0 0 0 0 0 0 0 0 0 0 0 0 0 0 0 0 0 0 0 0 0 0 0 0 0 0 0 0 0 0 0 0 0 0 0 0 0
0 0 0 0 0 0 0 0 0 0 0 0 0 0 0 0 0 0 0 0 0 0 0 0 0 0 0 0 0 0 0 0 0 0 0 0 0 0 0 0 0 0 0
0 0 0 0 0 0 0 0 0 0 0 0 0 0 0 0 0 0 0 0 0 0 0 0 0 0 0 0 0 0 0 0 0 0 0 0 0 0 0 0 0 0 0
0 0 0 0 0 0 0 0 0 0 0 0 0 0 0 0 0 0 0 0 0 0 0 0 0 0 0 0 0 0 0 0 0 0 0 0 0 0 0 0 0 0 0
0 0 0 0 0 0 0 0 0 0 0 0 0 0 0 0 0 0 0 0 0 0 0 0 0 0 0 0 0 0 0 0 0 0 0 0 0 0 0 0 0 0 0
0 0 0 0 0 0 0 0 0 0 0 0 0 0 0 0 0 0 0 0 0 0 0 0 0 0 0 0 0 0 0 0 0 0 0 0 0 0 0 0 0 0 0
0 0 0 0 0 0 0 0 0 0 0 0 0 0 0 0 0 0 0 0 0 0 0 0 0 0 0 0 0 0 0 0 0 0 0 0 0 0 0 0 0 0 0
0 0 0 0 0 0 0 0 0 0 0 0 0 0 0 0 0 0 0 0 0 0 0 0 0 0 0 0 0 0 0 0 0 0 0 0 0 0 0 0 0 0 0
0 0 0 0 0 0 0 0 0 0 0 0 0 0 0 0 0 0 0 0 0 0 0 0 0 0 0 0 0 0 0 0 0 0 0 0 0 0 0 0 0 0 0
0 0 0 0 0 0 0 0 0 0 0 0 0 0 0 0 0 0 0 0 0 0 0 0 0 0 0 0 0 0 0 0 0 0 0 0 0 0 0 0 0 0 0
0 0 0 0 0 0 0 0 0 0 0 0 0 0 0 0 0 0 0 0 0 0 0 0 0 0 0 0 0 0 0 0 0 0 0 0 0 0 0 0 0 0 0
0 0 0 0 0 0 0 0 0 0 0 0 0 0 0 0 0 0 0 0 0 0 0 0 0 0 0 0 0 0 0 0 0 0 0 0 0 0 0 0 0 0 0
0 0 0 0 0 0 0 0 0 0 0 0 0 0 0 0 0 0 0 0 0 0 0 0 0 0 0 0 0 0 0 0 0 0 0 0 0 0 0 0 0 0 0
0 0 0 0 0 0 0 0 0 0 0 0 0 0 0 0 0 0 0 0 0 0 0 0 0 0 0 0 0 0 0 0 0 0 0 0 0 0 0 0 0 0 0
Wind_Speed_500mb
43 40 39 39 39 38 36 33 29 27 24 22 21 17 18 18 16 11 9 8 5 6 8 8 8 4 3 6 7 5 5 6 8 10 11 12 13 14 14 14 11 14 8
47 46 43 43 44 44 40 38 34 31 27 27 25 24 22 22 21 18 17 16 12 11 11 9 6 3 1 4 4 4 5 7 8 11 13 15 16 17 15 16 16 15 14
51 50 49 49 47 47 45 43 41 38 36 32 30 29 27 26 26 24 24 21 19 18 18 15 12 14 12 11 9 8 9 11 13 14 15 18 21 21 18 17 20 19 22
54 55 55 55 51 50 49 49 46 44 40 38 34 32 30 31 31 30 29 27 24 21 22 21 20 21 21 21 20 20 21 22 23 23 21 20 25 24 24 25 22 23 25
57 60 60 58 55 58 55 54 52 50 47 43 39 36 36 36 37 34 32 30 28 28 25 23 23 25 27 27 28 28 27 31 34 36 34 29 26 27 24 27 29 27 25
63 63 63 60 61 63 62 59 58 55 53 46 44 44 42 42 41 40 37 35 35 36 32 30 29 29 29 32 32 33 33 34 37 41 43 38 33 32 28 33 32 33 29
70 69 67 63 65 69 67 65 62 61 60 52 49 50 48 47 50 50 43 39 39 40 39 39 35 35 36 37 35 35 36 34 35 37 44 52 41 43 40 33 39 42 38
80 77 75 71 70 74 72 71 70 69 67 59 61 53 39 52 61 52 48 44 41 39 45 42 42 42 41 42 39 38 38 35 37 37 39 42 58 56 54 49 45 43 43
89 85 84 78 79 77 79 77 76 77 75 68 69 56 27 37 34 38 36 36 41 42 46 43 44 43 43 43 42 41 39 34 37 38 37 37 44 51 57 63 59 54 47
97 95 91 87 86 83 85 84 81 82 78 80 73 81 78 50 30 23 41 44 45 47 46 46 46 48 47 47 47 45 37 31 36 35 37 39 41 46 48 52 55 67 62
98 101 100 97 95 93 90 88 88 89 87 86 86 85 83 86 82 72 56 63 59 57 51 50 47 45 45 50 51 40 31 33 37 39 39 46 47 50 48 51 53 59 58
100 100 106 107 103 99 96 94 93 91 92 92 93 90 92 91 90 83 83 83 76 68 62 57 55 51 47 49 48 38 38 44 43 44 43 41 43 50 51 52 53 55 63
109 106 102 108 111 107 103 99 99 97 97 99 98 99 97 97 91 85 80 84 82 76 73 69 65 58 48 44 40 38 44 46 45 45 45 49 53 57 60 58 55 54 57
113 113 106 104 104 106 106 106 106 103 101 102 104 103 103 101 96 92 92 82 79 78 76 81 71 64 46 40 43 43 43 42 40 40 49 57 58 59 60 61 58 58 57
112 111 107 108 105 102 106 108 111 110 108 107 107 107 108 104 102 97 95 91 89 66 66 83 70 62 45 38 42 41 44 45 46 51 54 58 62 63 69 65 54 54 55
107 106 106 107 111 107 103 107 111 110 111 112 112 111 109 107 107 102 101 96 91 89 79 81 74 68 57 49 42 47 47 43 51 55 58 62 63 67 72 70 60 56 54
111 111 109 107 110 110 105 106 110 109 113 113 112 113 110 107 106 103 101 101 95 92 89 87 80 81 65 66 54 49 54 51 58 60 65 63 67 66 62 60 45 49 50
110 112 111 110 108 110 107 106 110 111 112 113 111 112 111 107 102 100 96 98 93 92 86 87 83 83 71 71 58 57 54 59 57 60 65 67 61 54 45 39 33 35 45
110 108 110 111 111 112 105 108 112 110 112 114 111 110 109 107 105 101 100 101 98 94 92 87 85 82 74 73 65 57 61 61 62 63 68 58 41 39 35 35 34 38 39
105 106 111 108 108 111 112 113 113 109 110 111 111 112 109 106 100 96 100 104 100 95 94 87 84 83 82 73 67 59 60 67 60 62 65 36 34 34 32 35 38 39 41
89 96 99 103 104 111 114 116 114 112 110 111 112 111 111 105 98 99 99 107 98 95 95 88 83 84 85 76 67 63 66 60 61 61 45 33 32 28 31 33 37 39 39
74 85 97 100 100 107 111 109 111 110 112 116 115 112 108 109 108 100 107 97 91 93 94 89 84 90 81 77 77 65 65 61 60 55 37 34 30 28 30 30 31 31 32
72 77 86 95 104 108 108 105 106 107 113 117 115 111 111 111 106 103 98 95 93 89 85 75 89 84 80 70 69 67 66 68 59 43 31 31 31 31 31 31 29 25 26
75 78 83 90 99 108 108 105 101 97 103 114 116 112 109 107 103 100 96 96 93 91 86 81 76 81 70 62 68 67 62 53 47 42 39 37 32 37 34 32 32 33 30
76 80 84 87 95 101 101 102 99 99 99 107 117 113 108 105 104 96 89 90 94 93 88 87 79 70 68 70 71 67 62 55 51 49 43 39 32 36 34 32 31 30 26
85 85 89 85 84 92 96 98 93 93 102 98 114 115 106 100 96 86 84 89 99 96 90 87 77 71 75 72 67 62 55 57 52 44 50 49 37 38 26 36 34 36 25
Wind_Direction_500mb
226 222 219 221 222 221 219 221 222 226 226 231 233 236 240 248 255 261 267 270 287 307 334 336 17 44 89 76 67 58 40 26 17 1 349 346 330 328 316 310 301 305 319
229 226 225 226 226 226 226 226 228 233 233 234 236 241 242 246 254 260 259 261 261 267 276 295 301 311 53 84 87 57 24 3 349 338 330 325 322 326 311 301 293 285 292
238 234 232 233 230 229 230 230 230 232 232 235 234 237 242 248 251 255 259 261 259 257 257 257 256 261 263 271 274 289 300 305 308 308 310 311 308 311 305 289 290 298 296
242 240 239 237 233 232 231 233 233 236 236 238 239 240 245 250 256 252 253 257 259 253 252 250 248 247 252 259 271 285 291 296 297 299 299 297 304 307 308 285 295 296 291
241 241 242 242 237 235 234 234 234 236 239 240 243 245 247 248 253 248 247 243 251 254 249 246 248 248 250 256 263 273 275 275 280 295 297 304 304 299 287 300 307 288 299
243 241 243 242 239 239 237 237 237 238 241 243 247 251 250 253 258 256 254 252 248 248 248 246 244 248 252 257 264 272 275 272 270 277 279 291 298 292 260 255 277 272 263
243 242 244 244 239 239 239 239 240 239 240 239 243 247 248 251 252 256 258 258 253 244 243 245 245 250 255 261 266 272 276 278 275 267 271 275 283 285 280 267 258 259 257
245 245 243 244 242 240 239 237 237 238 241 237 238 244 253 254 258 260 260 253 248 245 241 241 244 248 255 262 267 269 270 271 273 267 262 261 265 273 271 276 272 267 258
245 245 245 245 244 242 242 240 238 237 238 237 234 231 223 240 258 261 247 240 245 242 240 244 245 247 254 260 262 263 265 265 267 271 267 264 259 262 262 263 267 268 264
245 245 245 245 245 244 244 243 241 240 238 239 235 235 236 247 238 259 257 255 254 249 247 249 252 253 256 259 263 264 256 258 264 269 268 269 263 255 253 258 267 263 258
248 247 246 246 245 244 245 245 242 240 240 240 240 239 240 242 246 252 265 263 261 261 259 260 261 261 255 263 261 261 244 253 259 258 269 273 266 261 257 253 254 256 263
254 250 248 246 247 246 246 246 246 243 242 243 244 244 244 242 244 245 250 260 264 271 271 272 267 266 267 267 262 249 249 255 256 258 269 278 274 275 269 261 264 264 254
257 256 252 248 247 247 246 247 247 246 244 243 245 247 248 248 251 255 256 262 265 271 273 274 272 272 270 271 271 251 258 252 255 262 270 272 276 277 275 273 269 262 256
263 261 260 258 253 252 250 248 248 249 247 247 246 247 250 253 252 253 255 256 260 266 271 274 278 282 273 270 259 256 258 248 255 265 276 272 275 281 282 281 269 260 255
263 263 261 261 259 255 253 251 250 250 250 249 249 249 250 253 255 256 256 255 256 257 263 275 277 280 277 250 261 262 254 264 258 269 277 274 275 278 282 286 272 264 256
260 258 264 263 262 258 255 253 252 252 252 253 252 252 252 252 254 256 257 257 256 256 255 266 271 271 277 269 255 262 262 268 261 274 277 276 276 280 283 284 276 264 259
264 261 262 264 263 262 260 255 253 253 252 252 253 253 254 254 252 254 256 257 256 255 255 264 262 263 269 259 261 266 259 266 268 272 276 274 274 279 280 285 283 260 258
264 263 261 262 264 263 263 260 256 254 252 252 253 253 254 253 250 253 253 253 256 258 260 255 257 262 262 259 258 266 262 271 264 274 281 283 282 279 271 266 267 255 254
263 263 259 257 261 264 265 266 262 259 256 254 254 254 255 254 253 255 255 256 259 260 257 256 256 259 259 254 244 255 257 255 266 276 286 286 274 272 262 267 265 262 262
266 264 261 263 260 261 258 262 262 261 259 258 257 256 255 254 256 258 255 257 256 256 255 255 254 256 254 252 241 253 259 255 266 274 285 274 270 267 258 256 258 255 252
267 266 266 262 261 263 264 261 259 258 259 259 258 256 256 254 248 252 258 254 255 252 251 251 250 249 247 244 243 259 264 259 265 275 273 256 261 258 259 257 255 257 258
275 269 266 264 264 260 257 256 257 258 258 257 257 257 257 254 252 251 252 256 251 250 249 247 247 246 248 247 260 254 254 253 264 267 253 244 255 255 252 250 257 259 258
287 278 272 267 263 261 260 260 260 259 259 259 258 257 257 255 254 253 254 252 251 251 250 247 248 247 253 260 251 257 255 254 259 250 251 243 247 237 242 251 252 249 248
283 281 278 271 265 262 262 260 258 258 258 258 253 252 253 257 259 255 252 248 248 247 245 244 249 252 251 250 252 255 257 249 233 234 238 241 225 226 235 232 236 238 237
280 279 281 277 270 266 262 261 261 258 257 258 256 256 256 257 257 256 253 251 246 244 242 242 242 238 250 252 249 249 233 221 221 228 230 226 219 218 225 231 227 223 210
280 280 279 278 274 268 265 263 259 258 259 257 254 252 253 255 258 257 253 250 245 241 238 237 229 244 248 247 248 239 233 228 224 223 219 217 221 209 222 220 222 212 245
Wind_Speed_850mb
43 40 39 39 39 38 36 33 29 27 24 22 21 17 18 18 16 11 9 8 5 6 8 8 8 4 3 6 7 5 5 6 8 10 11 12 13 14 14 14 11 14 8
47 46 43 43 44 44 40 38 34 31 27 27 25 24 22 22 21 18 17 16 12 11 11 9 6 3 1 4 4 4 5 7 8 11 13 15 16 17 15 16 16 15 14
51 50 49 49 47 47 45 43 41 38 36 32 30 29 27 26 26 24 24 21 19 18 18 15 12 14 12 11 9 8 9 11 13 14 15 18 21 21 18 17 20 19 22
54 55 55 55 51 50 49 49 46 44 40 38 34 32 30 31 31 30 29 27 24 21 22 21 20 21 21 21 20 20 21 22 23 23 21 20 25 24 24 25 22 23 25
57 60 60 58 55 58 55 54 52 50 47 43 39 36 36 36 37 34 32 30 28 28 25 23 23 25 27 27 28 28 27 31 34 36 34 29 26 27 24 27 29 27 25
63 63 63 60 61 63 62 59 58 55 53 46 44 44 42 42 41 40 37 35 35 36 32 30 29 29 29 32 32 33 33 34 37 41 43 38 33 32 28 33 32 33 29
70 69 67 63 65 69 67 65 62 61 60 52 49 50 48 47 50 50 43 39 39 40 39 39 35 35 36 37 35 35 36 34 35 37 44 52 41 43 40 33 39 42 38
80 77 75 71 70 74 72 71 70 69 67 59 61 53 39 52 61 52 48 44 41 39 45 42 42 42 41 42 39 38 38 35 37 37 39 42 58 56 54 49 45 43 43
89 85 84 78 79 77 79 77 76 77 75 68 69 56 27 37 34 38 36 36 41 42 46 43 44 43 43 43 42 41 39 34 37 38 37 37 44 51 57 63 59 54 47
97 95 91 87 86 83 85 84 81 82 78 80 73 81 78 50 30 23 41 44 45 47 46 46 46 48 47 47 47 45 37 31 36 35 37 39 41 46 48 52 55 67 62
98 101 100 97 95 93 90 88 88 89 87 86 86 85 83 86 82 72 56 63 59 57 51 50 47 45 45 50 51 40 31 33 37 39 39 46 47 50 48 51 53 59 58
100 100 106 107 103 99 96 94 93 91 92 92 93 90 92 91 90 83 83 83 76 68 62 57 55 51 47 49 48 38 38 44 43 44 43 41 43 50 51 52 53 55 63
109 106 102 108 111 107 103 99 99 97 97 99 98 99 97 97 91 85 80 84 82 76 73 69 65 58 48 44 40 38 44 46 45 45 45 49 53 57 60 58 55 54 57
113 113 106 104 104 106 106 106 106 103 101 102 104 103 103 101 96 92 92 82 79 78 76 81 71 64 46 40 43 43 43 42 40 40 49 57 58 59 60 61 58 58 57
112 111 107 108 105 102 106 108 111 110 108 107 107 107 108 104 102 97 95 91 89 66 66 83 70 62 45 38 42 41 44 45 46 51 54 58 62 63 69 65 54 54 55
107 106 106 107 111 107 103 107 111 110 111 112 112 111 109 107 107 102 101 96 91 89 79 81 74 68 57 49 42 47 47 43 51 55 58 62 63 67 72 70 60 56 54
111 111 109 107 110 110 105 106 110 109 113 113 112 113 110 107 106 103 101 101 95 92 89 87 80 81 65 66 54 49 54 51 58 60 65 63 67 66 62 60 45 49 50
110 112 111 110 108 110 107 106 110 111 112 113 111 112 111 107 102 100 96 98 93 92 86 87 83 83 71 71 58 57 54 59 57 60 65 67 61 54 45 39 33 35 45
110 108 110 111 111 112 105 108 112 110 112 114 111 110 109 107 105 101 100 101 98 94 92 87 85 82 74 73 65 57 61 61 62 63 68 58 41 39 35 35 34 38 39
105 106 111 108 108 111 112 113 113 109 110 111 111 112 109 106 100 96 100 104 100 95 94 87 84 83 82 73 67 59 60 67 60 62 65 36 34 34 32 35 38 39 41
89 96 99 103 104 111 114 116 114 112 110 111 112 111 111 105 98 99 99 107 98 95 95 88 83 84 85 76 67 63 66 60 61 61 45 33 32 28 31 33 37 39 39
74 85 97 100 100 107 111 109 111 110 112 116 115 112 108 109 108 100 107 97 91 93 94 89 84 90 81 77 77 65 65 61 60 55 37 34 30 28 30 30 31 31 32
72 77 86 95 104 108 108 105 106 107 113 117 115 111 111 111 106 103 98 95 93 89 85 75 89 84 80 70 69 67 66 68 59 43 31 31 31 31 31 31 29 25 26
75 78 83 90 99 108 108 105 101 97 103 114 116 112 109 107 103 100 96 96 93 91 86 81 76 81 70 62 68 67 62 53 47 42 39 37 32 37 34 32 32 33 30
76 80 84 87 95 101 101 102 99 99 99 107 117 113 108 105 104 96 89 90 94 93 88 87 79 70 68 70 71 67 62 55 51 49 43 39 32 36 34 32 31 30 26
85 85 89 85 84 92 96 98 93 93 102 98 114 115 106 100 96 86 84 89 99 96 90 87 77 71 75 72 67 62 55 57 52 44 50 49 37 38 26 36 34 36 25
Wind_Direction_850mb
226 222 219 221 222 221 219 221 222 226 226 231 233 236 240 248 255 261 267 270 287 307 334 336 17 44 89 76 67 58 40 26 17 1 349 346 330 328 316 310 301 305 319
229 226 225 226 226 226 226 226 228 233 233 234 236 241 242 246 254 260 259 261 261 267 276 295 301 311 53 84 87 57 24 3 349 338 330 325 322 326 311 301 293 285 292
238 234 232 233 230 229 230 230 230 232 232 235 234 237 242 248 251 255 259 261 259 257 257 257 256 261 263 271 274 289 300 305 308 308 310 311 308 311 305 289 290 298 296
242 240 239 237 233 232 231 233 233 236 236 238 239 240 245 250 256 252 253 257 259 253 252 250 248 247 252 259 271 285 291 296 297 299 299 297 304 307 308 285 295 296 291
241 241 242 242 237 235 234 234 234 236 239 240 243 245 247 248 253 248 247 243 251 254 249 246 248 248 250 256 263 273 275 275 280 295 297 304 304 299 287 300 307 288 299
243 241 243 242 239 239 237 237 237 238 241 243 247 251 250 253 258 256 254 252 248 248 248 246 244 248 252 257 264 272 275 272 270 277 279 291 298 292 260 255 277 272 263
243 242 244 244 239 239 239 239 240 239 240 239 243 247 248 251 252 256 258 258 253 244 243 245 245 250 255 261 266 272 276 278 275 267 271 275 283 285 280 267 258 259 257
245 245 243 244 242 240 239 237 237 238 241 237 238 244 253 254 258 260 260 253 248 245 241 241 244 248 255 262 267 269 270 271 273 267 262 261 265 273 271 276 272 267 258
245 245 245 245 244 242 242 240 238 237 238 237 234 231 223 240 258 261 247 240 245 242 240 244 245 247 254 260 262 263 265 265 267 271 267 264 259 262 262 263 267 268 264
245 245 245 245 245 244 244 243 241 240 238 239 235 235 236 247 238 259 257 255 254 249 247 249 252 253 256 259 263 264 256 258 264 269 268 269 263 255 253 258 267 263 258
248 247 246 246 245 244 245 245 242 240 240 240 240 239 240 242 246 252 265 263 261 261 259 260 261 261 255 263 261 261 244 253 259 258 269 273 266 261 257 253 254 256 263
254 250 248 246 247 246 246 246 246 243 242 243 244 244 244 242 244 245 250 260 264 271 271 272 267 266 267 267 262 249 249 255 256 258 269 278 274 275 269 261 264 264 254
257 256 252 248 247 247 246 247 247 246 244 243 245 247 248 248 251 255 256 262 265 271 273 274 272 272 270 271 271 251 258 252 255 262 270 272 276 277 275 273 269 262 256
263 261 260 258 253 252 250 248 248 249 247 247 246 247 250 253 252 253 255 256 260 266 271 274 278 282 273 270 259 256 258 248 255 265 276 272 275 281 282 281 269 260 255
263 263 261 261 259 255 253 251 250 250 250 249 249 249 250 253 255 256 256 255 256 257 263 275 277 280 277 250 261 262 254 264 258 269 277 274 275 278 282 286 272 264 256
260 258 264 263 262 258 255 253 252 252 252 253 252 252 252 252 254 256 257 257 256 256 255 266 271 271 277 269 255 262 262 268 261 274 277 276 276 280 283 284 276 264 259
264 261 262 264 263 262 260 255 253 253 252 252 253 253 254 254 252 254 256 257 256 255 255 264 262 263 269 259 261 266 259 266 268 272 276 274 274 279 280 285 283 260 258
264 263 261 262 264 263 263 260 256 254 252 252 253 253 254 253 250 253 253 253 256 258 260 255 257 262 262 259 258 266 262 271 264 274 281 283 282 279 271 266 267 255 254
263 263 259 257 261 264 265 266 262 259 256 254 254 254 255 254 253 255 255 256 259 260 257 256 256 259 259 254 244 255 257 255 266 276 286 286 274 272 262 267 265 262 262
266 264 261 263 260 261 258 262 262 261 259 258 257 256 255 254 256 258 255 257 256 256 255 255 254 256 254 252 241 253 259 255 266 274 285 274 270 267 258 256 258 255 252
267 266 266 262 261 263 264 261 259 258 259 259 258 256 256 254 248 252 258 254 255 252 251 251 250 249 247 244 243 259 264 259 265 275 273 256 261 258 259 257 255 257 258
275 269 266 264 264 260 257 256 257 258 258 257 257 257 257 254 252 251 252 256 251 250 249 247 247 246 248 247 260 254 254 253 264 267 253 244 255 255 252 250 257 259 258
287 278 272 267 263 261 260 260 260 259 259 259 258 257 257 255 254 253 254 252 251 251 250 247 248 247 253 260 251 257 255 254 259 250 251 243 247 237 242 251 252 249 248
283 281 278 271 265 262 262 260 258 258 258 258 253 252 253 257 259 255 252 248 248 247 245 244 249 252 251 250 252 255 257 249 233 234 238 241 225 226 235 232 236 238 237
280 279 281 277 270 266 262 261 261 258 257 258 256 256 256 257 257 256 253 251 246 244 242 242 242 238 250 252 249 249 233 221 221 228 230 226 219 218 225 231 227 223 210
280 280 279 278 274 268 265 263 259 258 259 257 254 252 253 255 258 257 253 250 245 241 238 237 229 244 248 247 248 239 233 228 224 223 219 217 221 209 222 220 222 212 245